User: anonymous   Login
Location: Bord�res
(43.2000°N, 0.2167°W)
Time: 01:47:43
(UTC+00:00)
Language:

COSMOS 2428 - Orbit

View from above orbital plane
View from above orbital plane
View from above satellite
View from above satellite

Ground track
Ground track

The orbit data is extracted from the following two-line orbital elements,

1 31792U 07029A   21125.76721833  .00000231  00000-0  15155-3 0  9994
2 31792  70.8943 315.6819 0009811 286.8976  73.1068 14.12258517714376
Epoch (UTC): 05 May 2021 18:24:47
Eccentricity: 0.0009811
inclination: 70.8943°
perigee height: 844 km
apogee height: 859 km
right ascension of ascending node: 315.6819°
argument of perigee: 286.8976°
revolutions per day: 14.12258517
mean anomaly at epoch: 73.1068°
orbit number at epoch: 71437

The dashed part of the orbit path shows where the satellite is in the earth's shadow,  

DLR